Content
SEND FEEDBACK

Daily
Averages
Monthly
Summary
United Kingdom

BEDFORD, ENGLAND


Home > Europe > United Kingdom > England
Elevation: 293 feet     Latitude: 52 13N     Longitude: 000 29W

WEATHER
 
SELECT A DAY
Number of Records: 72,123;   Date Range: 7/1/96 - 7/22/14
 
SHARE

PRINT THIS DATA

[ ← Previous Day ]
WEATHER ALMANAC - FEBRUARY 22, 2013
[ Next Day → ]
[ °C ]   °F
Weather ElementAverageHighLow
Temperature32.6 °F33.8 °F (11:20 am)32 °F (8:20 am)
Dewpoint22.8 °F24.8 °F (5:20 pm)21.2 °F (11:50 am)
Humidity67.2 %75 % (5:20 pm)60 % (11:50 am)
Barometer30.14 in30.15 in (8:20 am)30.12 in (1:20 pm)
Wind Speed12.8 mph16.1 mph (9:50 am)
Weather ElementAverage
Visibility6.2 mi
Wind DirectionNE (48.5 °)

Weather ElementTotal
Precipitation---
Heating Degree Days32.1 (Base 65)
Averaged from 20 records on February 22, 2013
WEATHER CONDITIONS BREAKOUT
WIND DIRECTION BREAKOUT
WEATHER BY HOUR - FEBRUARY 22, 2013
[ °C ]   °F
Local TimeTemperatureDewpointHumidityBarometerVisibilityWind DirectionWind SpeedGust SpeedPrecipitationEventsConditions
8:20 AM32.0 °F23.0 °F69 %30.15 in6.2 miENE (60°)11.5 mphMostly Cloudy
8:50 AM32.0 °F23.0 °F69 %30.15 in6.2 miNE (50°)13.8 mphMostly Cloudy
9:20 AM32.0 °F23.0 °F69 %30.15 in6.2 miENE (60°)13.8 mphMostly Cloudy
9:50 AM32.0 °F23.0 °F69 %30.15 in6.2 miENE (60°)16.1 mphMostly Cloudy
10:20 AM32.0 °F23.0 °F69 %30.15 in6.2 miNE (50°)11.5 mphMostly Cloudy
10:50 AM32.0 °F23.0 °F69 %30.15 in6.2 miENE (60°)15.0 mphMostly Cloudy
11:20 AM33.8 °F23.0 °F65 %30.15 in6.2 miENE (60°)12.7 mphMostly Cloudy
11:50 AM33.8 °F21.2 °F60 %30.15 in6.2 miENE (60°)15.0 mphMostly Cloudy
12:20 PM33.8 °F21.2 °F60 %30.15 in6.2 miNE (40°)16.1 mphMostly Cloudy
12:50 PM33.8 °F23.0 °F65 %30.15 in6.2 miNE (40°)13.8 mphMostly Cloudy
1:20 PM33.8 °F23.0 °F65 %30.12 in6.2 miENE (60°)13.8 mphMostly Cloudy
1:50 PM33.8 °F21.2 °F60 %30.12 in6.2 miNE (40°)13.8 mphMostly Cloudy
2:20 PM33.8 °F21.2 °F60 %30.12 in6.2 miNE (50°)13.8 mphMostly Cloudy
2:50 PM32.0 °F23.0 °F69 %30.12 in6.2 miNE (40°)12.7 mphMostly Cloudy
3:20 PM32.0 °F23.0 °F69 %30.12 in6.2 miNE (50°)12.7 mphSnowLight Snow Grains
3:50 PM32.0 °F23.0 °F69 %30.12 in6.2 miNE (40°)11.5 mphMostly Cloudy
4:20 PM32.0 °F23.0 °F69 %30.12 in6.2 miNE (40°)10.4 mphMostly Cloudy
4:50 PM32.0 °F23.0 °F69 %30.12 in6.2 miNE (40°)10.4 mphMostly Cloudy
5:20 PM32.0 °F24.8 °F75 %30.12 in6.2 miNE (40°)8.1 mphMostly Cloudy
5:50 PM32.0 °F24.8 °F75 %30.12 in6.2 miNNE (30°)9.2 mphMostly Cloudy
Hourly data recorded from EGTC, located miles away from Bedford, England







STORIES FROM OUR PARTNERS